This is the latest recevied weather packets stored in our database for station/object OE-11307. If no packets are shown the sender has not sent any weather packets the latest 10 day(s).
| Time | Temp. | Humidity | Pressure | Rain* | Wind** | Luminosity | Snow |
|---|---|---|---|---|---|---|---|
| 1787971287 | 10.56° C | 96% | 852.9 hPa | 0 mm | - | 0 W/m² | - |
| 1787970914 | 10.56° C | 96% | 853 hPa | 0 mm | - | 0 W/m² | - |
| 1787970314 | 10.56° C | 96% | 853.2 hPa | 0 mm | - | 0 W/m² | - |
| 1787969486 | 11.11° C | 96% | 853.4 hPa | 0 mm | - | 0 W/m² | - |
| 1787969113 | 11.11° C | 96% | 853.6 hPa | 0 mm | - | 0 W/m² | - |
| 1787968514 | 11.11° C | 97% | 853.6 hPa | 0 mm | - | 0 W/m² | - |
| 1787967686 | 11.11° C | 97% | 853.8 hPa | 0 mm | - | 0 W/m² | - |
| 1787967314 | 11.11° C | 96% | 853.8 hPa | 0 mm | - | 0 W/m² | - |
| 1787966714 | 11.11° C | 96% | 853.9 hPa | 0 mm | - | 0 W/m² | - |
| 1787965887 | 11.11° C | 96% | 853.8 hPa | 0 mm | - | 0 W/m² | - |
| 1787964914 | 11.11° C | 96% | 853.8 hPa | 0 mm | - | 0 W/m² | - |
| 1787964087 | 11.11° C | 96% | 853.8 hPa | 0 mm | - | 0 W/m² | - |
| 1787963714 | 11.11° C | 96% | 853.9 hPa | 0 mm | - | 0 W/m² | - |
| 1787963113 | 11.11° C | 97% | 854 hPa | 0 mm | - | 0 W/m² | - |
| 1787962286 | 11.11° C | 96% | 853.8 hPa | 0 mm | - | 0 W/m² | - |
| 1787961913 | 11.11° C | 96% | 853.9 hPa | 0 mm | - | 0 W/m² | - |
| 1787961314 | 11.11° C | 96% | 853.9 hPa | 0.25 mm | - | 0 W/m² | - |
| 1787960487 | 11.11° C | 96% | 853.9 hPa | 0.76 mm | - | 0 W/m² | - |
| 1787960114 | 10.56° C | 96% | 853.9 hPa | 1.02 mm | - | 0 W/m² | - |
| 1787959513 | 10.56° C | 97% | 854 hPa | 1.27 mm | - | 0 W/m² | - |
| 1787958914 | 10.56° C | 96% | 854.1 hPa | 2.03 mm | - | 0 W/m² | - |
| 1787958314 | 10.56° C | 96% | 854.1 hPa | 3.56 mm | - | 0 W/m² | - |
| 1787957714 | 10.56° C | 96% | 854.2 hPa | 4.57 mm | - | 0 W/m² | - |
| 1787956887 | 10.56° C | 96% | 854.6 hPa | 5.33 mm | - | 0 W/m² | - |
| 1787956514 | 10.56° C | 96% | 854.7 hPa | 5.59 mm | - | 0 W/m² | - |
* Rain latest hour (hover to see other rain measurements)
** Current wind speed in m/s (hover to see current wind gust speed)